| time (UTC) | temp F | wind direction | speed MPH | gust MPH | rain 1hr in | rain 24hr in | rain mn in | humidity % | barometer mb |
| 20260905170011 | 82 | 346 | 1.0 | 4.0 | 0.00 | 0.00 | 0.00 | 65 | 1010.7 |
| 20260905164507 | 82 | 339 | 1.0 | 6.0 | 0.00 | 0.00 | 0.00 | 65 | 1010.7 |
| 20260905163006 | 81 | 329 | 0.0 | 4.0 | 0.00 | 0.00 | 0.00 | 66 | 1010.7 |
| 20260905161504 | 81 | 63 | 0.0 | 3.0 | 0.00 | 0.00 | 0.00 | 68 | 1010.9 |
| 20260905160006 | 81 | 63 | 2.0 | 4.0 | 0.00 | 0.00 | 0.00 | 69 | 1010.9 |
| 20260905154501 | 80 | 346 | 0.0 | 3.0 | 0.00 | 0.00 | 0.00 | 72 | 1011.2 |
| 20260905153058 | 80 | 319 | 1.0 | 4.0 | 0.00 | 0.00 | 0.00 | 72 | 1011.2 |
| 20260905151556 | 79 | 320 | 1.0 | 6.0 | 0.00 | 0.00 | 0.00 | 72 | 1011.0 |
| 20260905150055 | 79 | 338 | 1.0 | 4.0 | 0.00 | 0.00 | 0.00 | 75 | 1011.1 |
| 20260905144555 | 79 | 299 | 1.0 | 2.0 | 0.00 | 0.00 | 0.00 | 76 | 1011.1 |
| 20260905143055 | 79 | 61 | 1.0 | 5.0 | 0.00 | 0.00 | 0.00 | 76 | 1011.1 |
| 20260905141552 | 78 | 243 | 0.0 | 3.0 | 0.00 | 0.00 | 0.00 | 75 | 1011.0 |
| 20260905140058 | 78 | 337 | 0.0 | 4.0 | 0.00 | 0.00 | 0.00 | 78 | 1010.9 |
| 20260905134557 | 78 | 312 | 0.0 | 5.0 | 0.00 | 0.00 | 0.00 | 81 | 1010.8 |
| 20260905133049 | 77 | 31 | 0.0 | 3.0 | 0.00 | 0.00 | 0.00 | 83 | 1010.5 |
| 20260905131544 | 76 | 291 | 0.0 | 2.0 | 0.00 | 0.00 | 0.00 | 88 | 1010.4 |
| 20260905130042 | 76 | 343 | 1.0 | 4.0 | 0.00 | 0.00 | 0.00 | 89 | 1010.3 |
| 20260905124546 | 75 | 346 | 1.0 | 4.0 | 0.00 | 0.00 | 0.00 | 91 | 1010.4 |
| 20260905123041 | 75 | 327 | 0.0 | 3.0 | 0.00 | 0.00 | 0.00 | 92 | 1010.3 |
| 20260905121545 | 75 | 81 | 0.0 | 3.0 | 0.00 | 0.00 | 0.00 | 92 | 1010.5 |
| 20260905120053 | 75 | 311 | 0.0 | 3.0 | 0.00 | 0.00 | 0.00 | 93 | 1010.2 |
| 20260905114556 | 74 | 341 | 1.0 | 3.0 | 0.00 | 0.00 | 0.00 | 93 | 1010.1 |
| 20260905113051 | 74 | 323 | 0.0 | 1.0 | 0.00 | 0.00 | 0.00 | 94 | 1010.0 |
| 20260905111615 | 73 | 327 | 0.0 | 1.0 | 0.00 | 0.00 | 0.00 | 94 | 1009.8 |
| 20260905110038 | 73 | 279 | 0.0 | 1.0 | 0.00 | 0.00 | 0.00 | 95 | 1009.9 |
| 20260905104537 | 72 | 279 | 0.0 | 0.0 | 0.00 | 0.00 | 0.00 | 94 | 1009.4 |
| 20260905103038 | 72 | 279 | 0.0 | 0.0 | 0.00 | 0.00 | 0.00 | 94 | 1009.3 |
| 20260905101536 | 72 | 279 | 0.0 | 0.0 | 0.00 | 0.00 | 0.00 | 94 | 1009.1 |
| 20260905100034 | 72 | 279 | 0.0 | 0.0 | 0.00 | 0.00 | 0.00 | 94 | 1009.0 |
| 20260905094534 | 72 | 279 | 0.0 | 0.0 | 0.00 | 0.01 | 0.00 | 94 | 1009.0 |
| 20260905093039 | 72 | 279 | 0.0 | 0.0 | 0.00 | 0.01 | 0.00 | 94 | 1009.2 |
| 20260905091532 | 73 | 279 | 0.0 | 0.0 | 0.00 | 0.01 | 0.00 | 94 | 1009.2 |
| 20260905090031 | 73 | 279 | 0.0 | 0.0 | 0.00 | 0.01 | 0.00 | 94 | 1009.2 |
| 20260905084532 | 73 | 279 | 0.0 | 0.0 | 0.00 | 0.01 | 0.00 | 93 | 1009.2 |
| 20260905083028 | 73 | 279 | 0.0 | 0.0 | 0.00 | 0.01 | 0.00 | 93 | 1009.2 |
| 20260905081526 | 73 | 279 | 0.0 | 0.0 | 0.00 | 0.01 | 0.00 | 93 | 1009.2 |
| 20260905080030 | 74 | 279 | 0.0 | 0.0 | 0.00 | 0.07 | 0.00 | 93 | 1009.3 |
| 20260905074522 | 74 | 279 | 0.0 | 0.0 | 0.00 | 0.07 | 0.00 | 93 | 1009.6 |
| 20260905073029 | 74 | 279 | 0.0 | 0.0 | 0.00 | 0.07 | 0.00 | 92 | 1009.7 |
| 20260905071520 | 75 | 279 | 0.0 | 0.0 | 0.00 | 0.07 | 0.00 | 92 | 1009.6 |
| 20260905070029 | 75 | 279 | 0.0 | 1.0 | 0.00 | 0.15 | 0.00 | 91 | 1009.7 |
| 20260905064535 | 75 | 279 | 0.0 | 1.0 | 0.00 | 0.15 | 0.00 | 92 | 1009.8 |
| 20260905063017 | 75 | 275 | 0.0 | 1.0 | 0.00 | 0.15 | 0.00 | 91 | 1009.7 |
| 20260905061514 | 75 | 275 | 0.0 | 2.0 | 0.00 | 0.15 | 0.00 | 91 | 1009.8 |
| 20260905060015 | 76 | 271 | 0.0 | 1.0 | 0.00 | 0.36 | 0.00 | 91 | 1009.8 |
| 20260905054516 | 76 | 259 | 0.0 | 0.0 | 0.00 | 0.36 | 0.00 | 91 | 1009.9 |
| 20260905053010 | 76 | 259 | 0.0 | 1.0 | 0.00 | 0.36 | 0.00 | 91 | 1010.1 |
| 20260905051516 | 76 | 120 | 0.0 | 1.0 | 0.00 | 0.36 | 0.00 | 91 | 1010.4 |
| 20260905050007 | 76 | 119 | 0.0 | 0.0 | 0.00 | 0.36 | 0.00 | 90 | 1010.3 |
| 20260905044505 | 77 | 119 | 0.0 | 1.0 | 0.00 | 0.36 | 0.00 | 90 | 1010.6 |
| 20260905043003 | 77 | 119 | 0.0 | 0.0 | 0.00 | 0.36 | 0.00 | 90 | 1010.9 |
| 20260905041502 | 77 | 119 | 0.0 | 0.0 | 0.00 | 0.36 | 0.00 | 90 | 1011.1 |
| 20260905040059 | 77 | 119 | 0.0 | 0.0 | 0.00 | 0.36 | 0.00 | 90 | 1011.2 |
| 20260905034608 | 77 | 119 | 0.0 | 1.0 | 0.00 | 0.36 | 0.36 | 90 | 1011.2 |
| 20260905033059 | 77 | 119 | 0.0 | 0.0 | 0.00 | 0.36 | 0.36 | 91 | 1011.2 |
| 20260905031558 | 77 | 341 | 0.0 | 0.0 | 0.00 | 0.36 | 0.36 | 92 | 1011.3 |
| 20260905030116 | 77 | 341 | 0.0 | 0.0 | 0.00 | 0.36 | 0.36 | 92 | 1011.3 |
| 20260905024604 | 77 | 341 | 0.0 | 0.0 | 0.00 | 0.36 | 0.36 | 92 | 1011.4 |
| 20260905023057 | 77 | 341 | 0.0 | 0.0 | 0.00 | 0.36 | 0.36 | 92 | 1011.2 |
| 20260905021557 | 78 | 341 | 0.0 | 0.0 | 0.00 | 0.36 | 0.36 | 92 | 1011.3 |
| 20260905020056 | 78 | 341 | 0.0 | 1.0 | 0.00 | 0.36 | 0.36 | 91 | 1011.1 |
| 20260905014559 | 78 | 341 | 0.0 | 0.0 | 0.00 | 0.36 | 0.36 | 91 | 1011.5 |
| 20260905013055 | 78 | 341 | 0.0 | 0.0 | 0.00 | 0.36 | 0.36 | 90 | 1011.4 |
| 20260905011556 | 78 | 341 | 0.0 | 0.0 | 0.00 | 0.36 | 0.36 | 90 | 1011.3 |
| 20260905010055 | 78 | 341 | 0.0 | 0.0 | 0.00 | 0.36 | 0.36 | 90 | 1011.3 |
| 20260905004554 | 78 | 341 | 0.0 | 0.0 | 0.00 | 0.36 | 0.36 | 90 | 1011.6 |
| 20260905003057 | 78 | 341 | 0.0 | 0.0 | 0.00 | 0.36 | 0.36 | 90 | 1011.3 |
| 20260905001557 | 78 | 341 | 0.0 | 0.0 | 0.00 | 0.36 | 0.36 | 89 | 1010.9 |
| 20260905000053 | 79 | 341 | 0.0 | 0.0 | 0.00 | 0.36 | 0.36 | 89 | 1010.9 |
| 20260904234558 | 79 | 341 | 0.0 | 0.0 | 0.00 | 0.36 | 0.36 | 88 | 1010.7 |
| 20260904233053 | 80 | 341 | 0.0 | 0.0 | 0.00 | 0.36 | 0.36 | 86 | 1010.2 |
| 20260904231551 | 81 | 335 | 0.0 | 0.0 | 0.00 | 0.36 | 0.36 | 84 | 1010.1 |
| 20260904230048 | 81 | 332 | 0.0 | 0.0 | 0.00 | 0.36 | 0.36 | 80 | 1010.9 |
| 20260904224546 | 82 | 332 | 0.0 | 0.0 | 0.00 | 0.36 | 0.36 | 78 | 1011.2 |
| 20260904223051 | 82 | 332 | 0.0 | 1.0 | 0.00 | 0.36 | 0.36 | 76 | 1011.7 |
| 20260904221551 | 83 | 332 | 0.0 | 1.0 | 0.00 | 0.36 | 0.36 | 75 | 1012.1 |
| 20260904220101 | 84 | 332 | 0.0 | 1.0 | 0.00 | 0.36 | 0.36 | 72 | 1012.1 |
| 20260904214544 | 84 | 331 | 1.0 | 3.0 | 0.00 | 0.36 | 0.36 | 70 | 1011.9 |
| 20260904213044 | 84 | 331 | 0.0 | 2.0 | 0.00 | 0.36 | 0.36 | 69 | 1011.5 |
| 20260904211551 | 85 | 333 | 1.0 | 3.0 | 0.00 | 0.36 | 0.36 | 68 | 1011.5 |
| 20260904210046 | 86 | 331 | 0.0 | 3.0 | 0.00 | 0.36 | 0.36 | 67 | 1011.5 |
| 20260904204541 | 86 | 304 | 1.0 | 5.0 | 0.00 | 0.36 | 0.36 | 66 | 1011.5 |
| 20260904203041 | 87 | 275 | 2.0 | 6.0 | 0.00 | 0.36 | 0.36 | 64 | 1011.5 |
| 20260904201541 | 87 | 315 | 2.0 | 4.0 | 0.00 | 0.36 | 0.36 | 64 | 1011.6 |
| 20260904200050 | 87 | 269 | 0.0 | 2.0 | 0.00 | 0.36 | 0.36 | 64 | 1011.5 |
| 20260904194621 | 88 | 284 | 2.0 | 9.0 | 0.00 | 0.36 | 0.36 | 61 | 1011.6 |
| 20260904193042 | 88 | 282 | 1.0 | 3.0 | 0.00 | 0.36 | 0.36 | 61 | 1011.8 |
| 20260904191535 | 89 | 275 | 0.0 | 3.0 | 0.00 | 0.36 | 0.36 | 62 | 1012.0 |
| 20260904190036 | 89 | 285 | 1.0 | 4.0 | 0.00 | 0.36 | 0.36 | 63 | 1012.0 |
| 20260904184534 | 89 | 268 | 0.0 | 2.0 | 0.00 | 0.36 | 0.36 | 63 | 1012.3 |
| 20260904183032 | 88 | 141 | 0.0 | 3.0 | 0.00 | 0.36 | 0.36 | 64 | 1012.4 |
| 20260904181529 | 88 | 133 | 0.0 | 3.0 | 0.00 | 0.36 | 0.36 | 63 | 1012.4 |
| 20260904180028 | 87 | 292 | 1.0 | 4.0 | 0.00 | 0.36 | 0.36 | 65 | 1012.5 |
| 20260904174527 | 87 | 270 | 1.0 | 5.0 | 0.00 | 0.36 | 0.36 | 66 | 1012.5 |
| 20260904173035 | 87 | 329 | 2.0 | 4.0 | 0.00 | 0.36 | 0.36 | 66 | 1012.8 |
| 20260904171532 | 86 | 260 | 1.0 | 4.0 | 0.00 | 0.36 | 0.36 | 68 | 1012.7 |